[[{"header":{"parameterUnit":"m.s-1","parameterCategory":1,"la1":30.2991,"la2":30.254,"lo1":-89.0895,"lo2":-89.0444,"dy":0.0017,"dx":0.0017,"nx":28,"ny":28,"refTime":"2024-05-06T03:00:00:Z","depth":0,"parameterNumber":2,"parameterNumberName":"U-component_of_WINDS"},"data":[0,0,0,0,0,0,0,0,0,0,0,0,0,0,0,0,0,0,0,0,0,0,0,0,0,0,0,0,0,0,0,0,0,0,0,0,0,0,0,0,0,0,0,0,0,0,0,0,0,0,0,0,0,0,0,0,0,0,-2.3814,-2.3814,0,-2.3853,-2.3853,-2.3854,-2.3844,-2.3843,-2.3843,-2.3842,-2.3881,-2.3883,-2.3885,0,0,0,0,0,0,0,0,0,0,0,0,0,-2.3732,-2.3733,-2.3814,-2.3814,-2.3815,-2.3853,-2.3853,-2.3854,-2.3844,-2.3843,-2.3842,-2.3842,-2.3881,-2.3883,-2.3885,0,0,0,0,0,0,0,0,0,0,0,0,0,-2.3769,-2.3734,-2.3814,-2.3815,-2.3815,-2.3853,-2.3853,-2.3854,-2.3844,-2.3843,-2.3842,-2.3841,-2.388,-2.3883,-2.3885,-2.3924,0,0,-2.3893,-2.3895,0,0,0,0,0,0,0,0,-2.3767,-2.3772,-2.3814,-2.3815,-2.3815,-2.3842,-2.3839,-2.3877,-2.3845,-2.3833,-2.3842,-2.3841,-2.3869,-2.3873,-2.3883,-2.3926,-2.3928,-2.3894,-2.3895,-2.3896,-2.3897,0,0,0,0,0,0,0,-2.3764,-2.377,-2.3829,-2.3815,-2.3815,-2.3813,-2.3817,-2.3846,-2.3857,-2.3834,-2.3834,-2.3838,-2.3869,-2.388,-2.3883,-2.3928,-2.3894,-2.3896,-2.3898,-2.3899,-2.4006,-2.4007,0,0,0,0,0,0,-2.3761,-2.3768,-2.3828,-2.383,-2.3788,-2.3816,-2.382,-2.3835,-2.3857,-2.3859,-2.3839,-2.3838,-2.3876,-2.388,-2.3885,-2.3932,-2.3896,-2.3899,-2.39,-2.4005,-2.4006,-2.4008,0,0,0,0,0,0,-2.3759,-2.3766,-2.3826,-2.3799,-2.3807,-2.3818,-2.3835,-2.3836,-2.3847,-2.3861,-2.3863,-2.3848,-2.3875,-2.3881,-2.3915,-2.3933,-2.39,-2.3902,-2.4003,-2.4005,-2.4007,-2.4025,0,0,0,0,0,0,-2.3757,-2.3766,-2.3781,-2.3799,-2.3808,-2.3855,-2.3836,-2.3838,-2.3851,-2.385,-2.3869,-2.3872,-2.3875,-2.3911,-2.3917,-2.3936,-2.3904,-2.4002,-2.4004,-2.4006,-2.4023,-2.4028,-2.4032,0,0,0,0,0,-2.3754,-2.3784,-2.3781,-2.3789,-2.3827,-2.3856,-2.3861,-2.3865,-2.3853,-2.3868,-2.3877,-2.3871,-2.393,-2.3914,-2.3921,-2.3941,-2.4,-2.4003,-2.4006,-2.4021,-2.4027,-2.4031,0,0,0,0,0,0,-2.3767,-2.3787,-2.3784,-2.3821,-2.3837,-2.3855,-2.3874,-2.387,-2.389,-2.3888,-2.3891,-2.3896,-2.393,-2.3939,-2.3921,-2.398,-2.3964,-2.3968,-2.3973,-2.3978,-2.3982,-2.3979,-2.3907,0,0,0,0,0,-2.3774,-2.3796,-2.3813,-2.3844,-2.3852,-2.3862,-2.3875,-2.3876,-2.3893,-2.39,-2.3911,-2.3928,-2.395,-2.3965,-2.3986,-2.4025,-2.4029,-2.4042,-2.4046,-2.405,-2.4053,-2.4074,-2.408,-2.4017,-2.4017,-2.4017,0,0,-2.3789,-2.3802,-2.3816,-2.3847,-2.3859,-2.3883,-2.3867,-2.3893,-2.391,-2.3904,-2.3936,-2.3945,-2.3964,-2.4,-2.4017,-2.4009,-2.4072,-2.4053,-2.4056,-2.4058,-2.4078,-2.4084,-2.4089,-2.4019,-2.4019,-2.4018,0,0,-2.3827,-2.384,-2.3867,-2.3881,-2.3901,-2.3907,-2.3913,-2.3932,-2.3938,-2.397,-2.3966,-2.3987,-2.4026,-2.4039,-2.4051,-2.4096,-2.4092,-2.4104,-2.4125,-2.4145,-2.415,-2.4155,-2.417,-2.4176,-2.4107,-2.4107,-2.4107,0,-2.3843,-2.3878,-2.3882,-2.3908,-2.3921,-2.3917,-2.3945,-2.3958,-2.3983,-2.3993,-2.3984,-2.4032,-2.4045,-2.4084,-2.4095,-2.4105,-2.4113,-2.41,-2.4149,-2.4154,-2.4158,-2.4173,-2.4179,-2.4108,-2.4108,-2.4108,-2.4108,0,-2.3896,-2.3921,-2.394,-2.3965,-2.3981,-2.4008,-2.4016,-2.4032,-2.4032,-2.4039,-2.4073,-2.4088,-2.4112,-2.4122,-2.4123,-2.4162,-2.4156,-2.4148,-2.4132,-2.4165,-2.4179,-2.4185,-2.411,-2.411,-2.4109,-2.4109,0,0,-2.3943,-2.397,-2.3977,-2.3989,-2.4011,-2.403,-2.4056,-2.408,-2.4094,-2.4112,-2.4134,-2.4168,-2.4161,-2.4174,-2.4177,-2.4195,-2.4229,-2.4185,-2.4185,-2.4192,-2.4273,-2.4278,-2.4285,-2.4227,-2.4228,-2.4229,-2.4271,0,-2.3983,-2.403,-2.4034,-2.4076,-2.4099,-2.4096,-2.4119,-2.4135,-2.4143,-2.4164,-2.4172,-2.4196,-2.4185,-2.4193,-2.4211,-2.4221,-2.4245,-2.4218,-2.4247,-2.4248,-2.4241,-2.4292,-2.4297,-2.4336,-2.4277,-2.4278,-2.4278,0,-2.4035,-2.4055,-2.4099,-2.4118,-2.4128,-2.4149,-2.4171,-2.4191,-2.421,-2.4214,-2.423,-2.423,-2.4258,-2.4241,-2.428,-2.4261,-2.4274,-2.428,-2.4282,-2.4284,-2.4264,-2.4294,-2.4349,-2.4354,-2.4287,-2.4287,-2.4286,0,-2.4064,-2.4102,-2.4133,-2.4143,-2.4166,-2.4181,-2.4191,-2.4209,-2.4223,-2.4243,-2.4253,-2.4276,-2.4288,-2.4306,-2.4313,-2.43,-2.4351,-2.4334,-2.4355,-2.4355,-2.4364,-2.4363,-2.4421,-2.4374,-2.4374,-2.4374,-2.4374,0,-2.4108,-2.4135,-2.4146,-2.4165,-2.4196,-2.4201,-2.4231,-2.4241,-2.4257,-2.4278,-2.4277,-2.4297,-2.4305,-2.4326,-2.4332,-2.4362,-2.4368,-2.4372,-2.4373,-2.4372,-2.4371,-2.4379,-2.4376,-2.4376,-2.4375,-2.4375,-2.4375,0,-2.4144,-2.4153,-2.4187,-2.4206,-2.4212,-2.4233,-2.425,-2.4269,-2.4277,-2.4304,-2.431,-2.4323,-2.4348,-2.4357,-2.4387,-2.4391,-2.4426,-2.4426,-2.442,-2.442,-2.4439,-2.4437,-2.4503,-2.4512,-2.446,-2.4461,-2.4461,0,-2.4171,-2.4191,-2.4213,-2.4227,-2.4238,-2.4261,-2.4276,-2.4282,-2.4298,-2.4321,-2.4337,-2.4362,-2.4382,-2.4422,-2.4434,-2.4458,-2.4457,-2.4478,-2.446,-2.4458,-2.4456,-2.4454,-2.4456,-2.4481,-2.4482,-2.4482,-2.4482,0,-2.4217,-2.4221,-2.4242,-2.4265,-2.4282,-2.43,-2.4318,-2.433,-2.4339,-2.4357,-2.4382,-2.4398,-2.4429,-2.4454,-2.4478,-2.4489,-2.4487,-2.4488,-2.4494,-2.4492,-2.4488,-2.449,-2.4428,-2.4486,-2.4486,-2.4486,-2.4485,-2.4485,-2.4249,-2.4267,-2.4285,-2.4309,-2.4323,-2.434,-2.4358,-2.4369,-2.439,-2.4416,-2.4419,-2.4447,-2.4465,-2.4498,-2.451,-2.4532,-2.4526,-2.4534,-2.4536,-2.4538,-2.4539,-2.4485,-2.4536,-2.4536,-2.4536,-2.4536,-2.4536,0,-2.4295,-2.4307,-2.4328,-2.4353,-2.4372,-2.4369,-2.4389,-2.4404,-2.4429,-2.4446,-2.4466,-2.4496,-2.452,-2.4534,-2.4559,-2.4573,-2.4573,-2.4579,-2.4578,-2.458,-2.4543,-2.4535,-2.4579,-2.4579,-2.4579,-2.4579,-2.4579,-2.4579,-2.4321,-2.4351,-2.4357,-2.4395,-2.4406,-2.4433,-2.4445,-2.446,-2.4474,-2.4507,-2.4527,-2.4537,-2.4553,-2.4579,-2.4601,-2.4604,-2.4613,-2.462,-2.4623,-2.4588,-2.4583,-2.4579,-2.4571,-2.4622,-2.4622,-2.4658,-2.4658,-2.4659]},{"header":{"parameterUnit":"m.s-1","parameterCategory":1,"la1":30.2991,"la2":30.254,"lo1":-89.0895,"lo2":-89.0444,"dy":0.0017,"dx":0.0017,"nx":28,"ny":28,"refTime":"2024-05-06T03:00:00:Z","depth":0,"parameterNumber":3,"parameterNumberName":"V-component_of_WINDS"},"data":[0,0,0,0,0,0,0,0,0,0,0,0,0,0,0,0,0,0,0,0,0,0,0,0,0,0,0,0,0,0,0,0,0,0,0,0,0,0,0,0,0,0,0,0,0,0,0,0,0,0,0,0,0,0,0,0,0,0,5.1788,5.1789,0,5.1824,5.1824,5.1825,5.1756,5.1754,5.1751,5.1749,5.1782,5.1785,5.1788,0,0,0,0,0,0,0,0,0,0,0,0,0,5.1658,5.1661,5.1788,5.1789,5.1789,5.1824,5.1824,5.1825,5.1756,5.1754,5.1751,5.1748,5.1781,5.1784,5.1788,0,0,0,0,0,0,0,0,0,0,0,0,0,5.1706,5.1662,5.1788,5.176,5.1757,5.1824,5.1824,5.1825,5.1757,5.1754,5.175,5.1747,5.178,5.1784,5.1789,5.1883,0,0,5.1802,5.1804,0,0,0,0,0,0,0,0,5.1703,5.1711,5.1763,5.1762,5.1759,5.1782,5.179,5.1844,5.1758,5.1757,5.1749,5.1745,5.1784,5.1788,5.1802,5.1885,5.1886,5.1802,5.1805,5.1807,5.1808,0,0,0,0,0,0,0,5.17,5.1709,5.1802,5.1764,5.1762,5.1743,5.1747,5.18,5.1789,5.1757,5.1752,5.1757,5.1783,5.1798,5.1802,5.1887,5.1802,5.1806,5.1809,5.1811,5.2048,5.2052,0,0,0,0,0,0,5.1701,5.1707,5.1801,5.1803,5.1723,5.1749,5.1752,5.1778,5.1788,5.1787,5.176,5.1754,5.1792,5.1797,5.1803,5.1915,5.1807,5.1811,5.1814,5.2045,5.2049,5.2053,0,0,0,0,0,0,5.1698,5.171,5.18,5.1754,5.1764,5.1754,5.1784,5.1781,5.1796,5.1791,5.1788,5.1778,5.179,5.1797,5.1864,5.1915,5.1813,5.1817,5.2041,5.2046,5.2051,5.2139,0,0,0,0,0,0,5.1695,5.171,5.1747,5.1755,5.1767,5.1861,5.1787,5.1784,5.1804,5.1796,5.1807,5.1806,5.1788,5.1858,5.1869,5.1919,5.1821,5.2036,5.2043,5.205,5.2131,5.2147,5.216,0,0,0,0,0,5.1691,5.1769,5.1749,5.1761,5.1813,5.1864,5.1871,5.185,5.1809,5.1845,5.1842,5.1805,5.1908,5.1865,5.1877,5.193,5.2033,5.2041,5.2049,5.2125,5.2144,5.2159,0,0,0,0,0,0,5.1765,5.177,5.1747,5.1831,5.1848,5.1853,5.1898,5.187,5.1898,5.1889,5.1861,5.1864,5.1936,5.1939,5.1892,5.2022,5.1963,5.1974,5.2017,5.2035,5.2049,5.2046,5.1824,0,0,0,0,0,5.1792,5.1835,5.1836,5.191,5.1919,5.1908,5.1929,5.1912,5.1927,5.1934,5.1935,5.1951,5.1987,5.2011,5.2043,5.2132,5.2132,5.2173,5.2188,5.2199,5.2209,5.2255,5.2273,5.208,5.208,5.208,0,0,5.1847,5.1854,5.1883,5.1925,5.1936,5.198,5.1914,5.1963,5.1995,5.1941,5.2005,5.2006,5.2022,5.21,5.2134,5.2105,5.2262,5.221,5.2219,5.2222,5.2265,5.2284,5.23,5.2086,5.2085,5.2084,0,0,5.1969,5.198,5.2042,5.2055,5.2073,5.2064,5.2079,5.2089,5.2088,5.2152,5.2112,5.2149,5.2211,5.2224,5.2238,5.2365,5.2333,5.2377,5.2451,5.2496,5.2511,5.2525,5.2569,5.2586,5.2386,5.2387,5.2387,0,5.2034,5.21,5.2077,5.213,5.2149,5.2103,5.2166,5.2178,5.2206,5.2219,5.2186,5.2264,5.2271,5.2351,5.2382,5.2396,5.2411,5.2375,5.2511,5.2524,5.2536,5.2579,5.2596,5.2392,5.2391,5.2391,5.239,0,5.2179,5.2226,5.2274,5.2303,5.2327,5.2384,5.2369,5.2396,5.2377,5.2371,5.2436,5.2443,5.2477,5.2494,5.2475,5.2572,5.2553,5.2516,5.2456,5.256,5.26,5.2616,5.2399,5.2397,5.2396,5.2395,0,0,5.235,5.2366,5.2384,5.2396,5.2413,5.2447,5.2502,5.2535,5.2559,5.2579,5.2623,5.2677,5.2643,5.266,5.2642,5.2682,5.2781,5.264,5.2639,5.2665,5.2887,5.2915,5.2934,5.276,5.2763,5.2765,5.2886,0,5.2471,5.2566,5.2547,5.264,5.2682,5.2639,5.2686,5.2701,5.2697,5.2731,5.2726,5.2765,5.2717,5.2727,5.2765,5.2761,5.2825,5.2752,5.28,5.2802,5.2797,5.2955,5.2984,5.3098,5.2901,5.2904,5.2906,0,5.2625,5.2652,5.275,5.276,5.2776,5.2819,5.2848,5.2882,5.2897,5.2891,5.291,5.2884,5.2937,5.2877,5.2949,5.29,5.2918,5.2919,5.2923,5.2926,5.286,5.2962,5.3134,5.3151,5.293,5.2928,5.2926,0,5.2739,5.28,5.2866,5.2878,5.2891,5.2922,5.2929,5.2941,5.2962,5.2987,5.3,5.3031,5.3047,5.3071,5.3053,5.3011,5.3128,5.3066,5.3124,5.3124,5.315,5.3148,5.3326,5.3162,5.3162,5.3162,5.3161,0,5.2877,5.2938,5.2918,5.2959,5.3025,5.3002,5.3069,5.307,5.3081,5.312,5.3084,5.3121,5.3096,5.3131,5.3117,5.3178,5.3186,5.3182,5.3178,5.3185,5.3186,5.3197,5.3188,5.3166,5.3165,5.3164,5.3164,0,5.3016,5.3005,5.3074,5.3081,5.3084,5.3133,5.3138,5.3175,5.3169,5.3219,5.3229,5.3219,5.3258,5.3243,5.3284,5.3274,5.3353,5.3338,5.3348,5.3344,5.3402,5.3397,5.3593,5.3618,5.3438,5.344,5.3441,0,5.3104,5.315,5.3162,5.3186,5.3196,5.3235,5.3257,5.3235,5.3259,5.328,5.3314,5.3351,5.3378,5.3443,5.3438,5.3469,5.3455,5.3521,5.3459,5.3465,5.3455,5.3453,5.3457,5.3534,5.3536,5.3538,5.3539,0,5.3262,5.3254,5.3288,5.332,5.3347,5.337,5.339,5.3412,5.3391,5.342,5.346,5.3482,5.3524,5.356,5.3588,5.3593,5.3563,5.3559,5.3573,5.3582,5.3586,5.3584,5.3382,5.3554,5.3553,5.3552,5.3551,5.355,5.3378,5.3417,5.3432,5.347,5.3483,5.3503,5.3538,5.3536,5.357,5.3603,5.3588,5.3634,5.3647,5.3681,5.3691,5.3726,5.37,5.3721,5.3727,5.3732,5.374,5.358,5.3731,5.373,5.373,5.3729,5.3729,0,5.3534,5.3541,5.3577,5.3607,5.3636,5.3606,5.3627,5.3653,5.3695,5.371,5.3738,5.3784,5.3819,5.3817,5.3849,5.3877,5.3864,5.3886,5.3884,5.3885,5.3761,5.3745,5.3896,5.3896,5.3896,5.3896,5.3896,5.3896,5.3619,5.3683,5.3677,5.3747,5.3753,5.3799,5.3813,5.3831,5.3843,5.3896,5.3925,5.3924,5.3932,5.3964,5.3994,5.3992,5.4006,5.4033,5.4027,5.3911,5.3894,5.3878,5.3863,5.4036,5.4037,5.4147,5.4148,5.4149]}]]